Jonestown, PA

5:58 PM EST on February 21, 2017 (GMT -0500)
Muir Army Air Field

Weather History for KMUI - August, 2013

Change the Weather History Date:

Wednesday, August 14, 2013

  Actual Average Record
Temperature  
Mean Temperature 64 °F -  
Max Temperature 72 °F 82 °F 96 °F (2002)
Min Temperature 55 °F 66 °F 54 °F (2015)
Growing Degree Days 14 (Base 50)    
Moisture  
Dew Point 48 °F    
Average Humidity 57    
Maximum Humidity 84    
Minimum Humidity 44    
Precipitation  
Precipitation 0.00 in - - ()
Sea Level Pressure  
Sea Level Pressure 29.97 in    
Wind  
Wind Speed 8 mph (NW)    
Max Wind Speed 14 mph    
Max Gust Speed 24 mph    
Visibility 10 miles    
Events      
Averages and records for this station are not official NWS values.
T = Trace of Precipitation, MM = Missing Value Source: NWS Daily Summary

Daily Weather History Graph

Daily Weather History Graph

Search for Another Location

Airport or City:

Trip Planner

Search our weather history database for the weather conditions in past years. The results will help you decide how hot, cold, wet, or windy it might be!

Date:

Astronomy

Aug. 14, 2013 Rise Set
Actual Time 6:16 AM EDT 8:04 PM EDT
Civil Twilight 5:47 AM EDT 8:33 PM EDT
Nautical Twilight 5:11 AM EDT 9:09 PM EDT
Astronomical Twilight 4:33 AM EDT 9:47 PM EDT
Moon 2:14 PM EDT (8/14) No Moon Set
Length of Visible Light 14h 46m
Length of Day
13h 48m
First Quarter, 52% of the Moon is Illuminated
Aug 14
First Quarter
Aug 20
Full
Aug 28
Last Quarter
Sep 5
New
Sep 12
First Quarter

Hourly Weather History & Observations

Time (EDT) Temp. Dew Point Humidity Pressure Visibility Wind Dir Wind Speed Gust Speed Precip Events Conditions
12:58 AM 66.4 °F 50.0 °F 56% 29.86 in 10.0 mi WNW 8.1 mph 17.3 mph N/A   Clear
1:58 AM 64.2 °F 48.4 °F 56% 29.87 in 10.0 mi Variable 6.9 mph 19.6 mph N/A   Clear
2:58 AM 61.7 °F 45.9 °F 56% 29.89 in 10.0 mi NW 10.4 mph 24.2 mph N/A   Clear
3:58 AM 60.1 °F 43.9 °F 55% 29.89 in 10.0 mi NW 5.8 mph - N/A   Clear
4:58 AM 59.0 °F 45.7 °F 61% 29.89 in 10.0 mi WNW 6.9 mph - N/A   Clear
5:58 AM 58.3 °F 43.9 °F 59% 29.89 in 10.0 mi West 8.1 mph - N/A   Clear
6:58 AM 58.1 °F 44.2 °F 60% 29.91 in 10.0 mi Variable 6.9 mph - N/A   Clear
7:58 AM 59.9 °F 45.5 °F 59% 29.94 in 10.0 mi West 12.7 mph 19.6 mph N/A   Clear
8:58 AM 62.1 °F 46.9 °F 58% 29.94 in 10.0 mi NW 11.5 mph 17.3 mph N/A   Clear
9:58 AM 64.6 °F 48.0 °F 55% 29.96 in 10.0 mi NW 8.1 mph 16.1 mph N/A   Scattered Clouds
10:58 AM 65.7 °F 48.6 °F 54% 29.97 in 10.0 mi WNW 10.4 mph 21.9 mph N/A   Mostly Cloudy
11:58 AM 66.6 °F 49.1 °F 53% 29.99 in 10.0 mi WNW 12.7 mph 20.7 mph N/A   Mostly Cloudy
12:58 PM 68.2 °F 48.9 °F 50% 29.99 in 10.0 mi NW 13.8 mph 20.7 mph N/A   Mostly Cloudy
1:58 PM 68.7 °F 49.3 °F 50% 30.00 in 10.0 mi NW 9.2 mph 23.0 mph N/A   Mostly Cloudy
2:58 PM 70.0 °F 49.1 °F 47% 30.00 in 10.0 mi NNW 9.2 mph 21.9 mph N/A   Scattered Clouds
3:58 PM 71.2 °F 49.6 °F 46% 29.99 in 10.0 mi WNW 10.4 mph 21.9 mph N/A   Mostly Cloudy
4:58 PM 71.6 °F 49.6 °F 46% 30.00 in 10.0 mi North 6.9 mph - N/A   Partly Cloudy
5:58 PM 71.8 °F 48.9 °F 44% 30.01 in 10.0 mi North 9.2 mph 19.6 mph N/A   Clear
6:58 PM 70.0 °F 49.5 °F 48% 30.01 in 10.0 mi WNW 4.6 mph - N/A   Clear
7:58 PM 65.5 °F 51.8 °F 61% 30.03 in 10.0 mi NW 2.3 mph - N/A   Clear
8:58 PM 61.0 °F 53.1 °F 75% 30.05 in 10.0 mi Variable 2.3 mph - N/A   Clear
9:58 PM 60.4 °F 51.1 °F 71% 30.08 in 10.0 mi WNW 4.6 mph - N/A   Clear
10:58 PM 60.4 °F 50.5 °F 70% 30.09 in 10.0 mi NNW 2.3 mph - N/A   Clear
11:58 PM 55.6 °F 50.7 °F 84% 30.11 in 10.0 mi North 1.2 mph - N/A   Clear